STARLINK-6031, 56810

Orbit data source: Space-Track

STARLINK-6031, 56810 is a payload satellite owned by SpaceX/Seattle (US) in LEO that was launched on Wed, 31 May 2023 UTC via an FALCON 9 launch vehicle from the Air Force Western Test Range (AFWTR). Payload-class satellites include a variety of spacecraft equipped with specific instruments for various scientific and technological missions. These include communications satellites like Starlink; space stations such as the ISS; scientific satellites like the Hubble; Earth observation satellites from companies like Planet Labs, Umbra, and HawkEye 360; GPS; miniature CubeSats for education and research; and military/defense satellites.

Loading next visibility...
Identifier
56810, 2023-078AV
Orbit
LEO
Country
Flag of USUS
Related business
Manufacturer
SpaceX/Seattle
Mission
Operational Commercial Communications
Bus & Motor
STARLINK, Unknown motor
Mass
305 kg wet, ~290 kg dry
Launch date (UTC)
2023-05-31 (3 years ago)
Launch vehicle
FALCON 9
Launch site
Air Force Western Test Range (AFWTR)
Object type
Payload
Rocket body
Debris
Shape & HBR
Box + 1 Pan, 10.1 m
Radar Cross Section
11.087 m², Large (>1 m²)

Expand to show TLE details & history
Last TLE update: 2 days ago

TLE from 2 days ago
0 STARLINK-6031
1 56810U 23078AV  26171.18065653  .00000380  00000-0  39641-4 0  9999
2 56810  69.9996  85.9888 0002886 266.4173  93.6656 14.98332136168032
Epoch: 2026-06-20T04:20Z
TLE epoch observation values (Epoch: 2026-06-20T04:20:08.724Z)
Latitude
-0.00001°
Longitude
112.55347°
Altitude
574.602 km
Speed
7.574 km/s
True Right ascension
05h 43m 57s
True Declination
0° 00' 00"
Sunlit
Object was in daylight at epoch
Visualization orbit readout
Latitude
Unknown
Longitude
Unknown
Altitude
Unknown
Speed
Unknown
Apparent Right ascension
Unknown
Apparent Declination
Unknown
Sunlit
N/A
Visualization observer readout
Local Sidereal Time
21:31:35
Azimuth
Unknown
Elevation
Unknown
Doppler factor
Unknown
Orbital elements
Apogee altitude
572.003 km
Perigee altitude
567.992 km
Semi-major axis
6,948.135 km
Eccentricity
0.00029
Inclination
69.9996°
RAAN
85.9888°
Arg. of periapsis
266.4173°
True anomaly
93.6986°
Mean anomaly
93.6656°
Eccentric anomaly
93.6821°
Mean motion
3.74749 °/min
Orbital period
96.06 mins
BSTAR
0.000039641
Loading maneuver chart data...
Computing Atmospheric mass density...
Loading historical data...
Loading historical data...
Loading historical data...
Loading historical data...
Loading historical data...
Loading historical data...
Loading historical data...

Documentation

Showing up to 5 results
|